Theta_e
306 306 306 307 308 309 308 309 309 309 309 310 311 311 307 306 307 301 297 299 296 291 293 295 295 291 292 292 287 291 289 292 291 286 286 286 286 286 284 287 287 282 276 276 283 277 273 292 290 283 286 290 291 292
304 304 304 304 305 307 308 308 309 309 309 310 310 311 308 306 306 303 296 300 300 292 292 293 295 297 296 298 293 292 290 290 292 289 288 287 283 283 282 278 291 282 284 279 282 280 287 290 289 291 291 291 292 293
303 303 303 303 303 304 306 307 308 309 309 310 310 311 309 307 305 303 297 299 296 292 291 291 289 294 297 297 299 290 292 295 295 296 290 287 283 283 277 280 286 291 291 280 284 286 286 289 291 291 292 292 293 295
303 303 303 302 303 303 303 306 307 308 309 309 310 310 308 307 306 304 297 299 296 293 286 287 295 293 300 300 298 297 296 296 295 295 289 286 283 289 286 287 284 287 287 284 284 285 288 289 291 292 293 294 294 295
303 303 303 303 303 304 303 303 305 307 308 309 309 309 308 306 306 304 300 299 299 293 287 287 291 293 295 297 298 297 295 292 291 291 288 285 286 287 285 285 283 287 286 280 279 284 286 288 293 295 293 293 294 293
302 303 303 303 304 304 304 303 304 306 308 309 310 309 307 306 304 299 293 298 300 298 289 283 289 290 295 297 296 295 294 292 292 292 290 291 289 289 281 285 287 288 288 287 285 288 290 291 294 295 293 293 294 294
302 302 303 303 304 305 305 304 303 306 308 309 309 308 306 305 300 295 293 297 301 298 289 285 286 291 297 299 297 295 294 295 294 292 289 289 287 292 287 279 286 289 288 288 290 290 290 292 290 294 294 294 294 294
302 302 303 304 304 305 305 305 304 305 307 309 308 307 305 304 300 296 299 301 300 294 292 284 285 288 298 295 293 298 294 295 295 292 291 289 290 288 285 289 291 291 291 291 290 293 293 291 293 293 294 293 292 292
302 302 303 304 304 305 305 304 304 306 307 308 306 303 299 296 293 295 302 303 300 295 286 287 283 283 297 296 297 297 297 290 296 291 290 288 287 285 289 291 291 291 286 287 290 290 289 291 292 292 291 291 290 290
302 302 303 304 305 305 305 304 305 306 306 304 299 295 290 294 301 303 296 291 291 291 289 285 290 286 292 290 292 294 295 291 287 290 293 289 288 293 293 292 291 289 289 288 285 285 287 289 291 290 290 291 291 291
303 303 303 304 305 306 306 305 305 305 302 297 293 292 298 302 297 292 288 286 286 284 286 286 287 285 294 287 288 293 290 291 286 288 288 286 285 287 290 287 287 287 287 287 287 288 289 292 291 290 290 291 291 291
303 303 303 304 305 305 306 306 305 299 297 297 297 299 298 293 290 286 285 287 284 282 287 286 288 290 290 294 289 290 287 288 282 292 288 280 286 290 287 287 286 286 286 286 287 288 292 292 291 290 290 290 291 291
304 303 303 303 304 305 305 306 304 303 301 298 293 290 289 288 282 281 279 284 283 287 288 291 288 290 290 292 289 288 286 284 293 286 285 282 286 287 287 287 286 286 286 287 287 289 291 291 291 290 289 290 291 291
303 303 303 303 303 304 305 305 304 301 297 290 287 282 284 283 284 284 286 287 290 294 292 293 290 290 291 286 287 285 288 289 284 283 283 284 285 286 287 287 286 285 286 286 287 288 289 289 289 290 290 290 290 290
303 303 303 302 303 304 305 305 303 300 294 288 288 282 283 286 287 291 291 291 293 295 294 291 292 291 287 287 287 286 283 281 281 283 280 284 285 286 285 286 285 285 286 286 287 287 288 288 288 288 290 290 290 290
302 301 300 302 302 303 304 303 298 297 293 289 288 286 286 287 287 289 291 291 296 294 295 293 290 287 286 285 284 284 280 277 278 281 284 285 285 285 285 286 286 287 286 286 286 287 287 288 287 287 289 289 289 289
301 298 303 302 303 304 302 295 294 290 288 286 287 290 288 289 289 292 294 294 298 295 289 290 285 285 290 284 281 281 279 282 284 284 284 285 285 285 285 286 287 287 287 286 287 286 286 287 288 288 286 288 289 289
298 301 303 304 302 298 295 295 291 288 285 288 286 285 287 291 291 293 295 297 295 294 291 287 291 287 285 283 281 284 285 286 286 286 285 285 286 286 287 286 287 287 286 287 286 285 285 285 285 286 286 288 288 288
300 301 304 301 298 293 290 290 292 286 286 287 287 286 290 292 292 294 296 296 297 295 292 289 286 285 286 288 287 286 287 287 286 286 286 287 286 287 288 288 288 286 285 285 284 283 284 284 284 285 286 287 285 286
302 302 301 301 299 291 287 288 293 287 283 285 286 286 287 290 293 293 295 296 294 292 288 287 287 287 289 291 291 290 290 289 288 285 285 286 287 288 287 287 286 285 284 283 283 285 284 284 284 285 285 285 285 284
300 301 300 299 296 294 291 288 287 289 288 287 287 286 286 289 289 290 292 296 291 290 287 289 289 291 290 290 291 291 290 290 287 287 286 284 286 285 285 284 284 284 283 282 282 282 283 282 283 284 284 284 285 285
297 300 296 297 292 293 291 291 288 290 288 291 290 289 289 288 289 289 295 291 290 290 290 290 291 290 288 290 290 291 290 288 286 286 287 287 283 283 283 283 283 282 282 281 281 282 282 282 283 283 283 283 283 283
298 297 294 294 289 288 288 294 289 290 286 289 291 288 288 289 291 295 290 292 291 294 292 292 290 289 288 288 288 288 289 288 285 285 286 284 284 284 284 284 283 282 281 281 281 281 282 283 283 282 282 282 282 281
298 292 288 288 287 284 291 288 290 289 289 288 288 287 288 291 293 291 288 288 290 290 289 289 289 287 287 287 286 285 284 285 283 283 284 284 282 282 283 282 282 282 282 281 281 281 282 282 283 281 281 281 280 280
287 286 287 284 287 287 285 286 287 288 285 288 287 287 289 293 287 286 286 287 288 287 287 288 288 288 286 284 283 284 284 284 284 283 283 283 282 281 280 281 281 281 282 281 281 282 282 282 282 281 280 280 279 279
279 285 284 284 286 285 284 284 284 286 287 287 287 291 292 288 285 285 287 289 290 288 288 288 287 286 285 285 283 283 283 284 284 283 282 282 283 282 280 280 280 280 282 282 282 282 281 281 281 280 279 279 279 278
281 282 285 289 289 289 288 290 289 287 286 286 289 287 288 283 284 288 290 291 289 290 290 291 290 289 287 284 284 284 284 284 284 284 283 282 282 282 282 281 281 281 283 283 283 282 281 281 280 280 278 278 278 277
288 288 284 285 289 291 287 289 288 287 289 292 291 287 285 285 284 286 290 291 290 289 289 290 290 289 288 286 285 284 284 285 285 285 285 284 282 281 282 282 283 283 283 283 281 281 280 280 280 279 278 277 276 277
288 290 290 286 288 288 288 287 289 291 293 292 287 285 284 285 285 285 287 288 290 288 286 284 285 286 285 284 284 284 285 284 283 281 281 280 280 280 281 281 281 281 281 280 280 280 280 279 278 278 277 277 276 277
288 292 287 288 286 285 287 289 288 291 291 289 288 287 285 284 285 286 285 286 287 285 285 285 285 285 284 284 283 282 281 282 284 284 280 278 279 279 280 281 280 280 280 279 278 278 278 278 277 277 276 275 275 274
292 290 288 287 285 287 289 290 290 290 289 288 288 285 284 285 285 285 284 283 285 286 285 283 281 283 285 285 284 281 278 279 279 279 279 279 279 280 281 281 281 280 279 278 278 277 276 275 275 274 274 273 273 273
290 288 286 284 284 288 290 288 286 286 285 284 282 286 284 282 279 281 284 282 281 280 280 280 278 277 279 279 279 279 279 279 279 279 279 279 279 280 281 280 280 280 278 277 276 275 275 274 273 272 272 271 271 271
286 288 287 286 284 284 286 284 282 282 282 281 282 281 280 279 276 282 285 285 281 279 278 278 278 279 279 280 280 280 280 280 279 279 279 279 279 280 280 280 280 279 277 275 274 273 271 268 268 266 265 265 265 265
Wind_Speed
12 12 12 12 12 11 10 10 10 9 11 11 10 12 12 11 11 4 1 3 3 3 6 7 7 7 5 4 3 3 5 0 2 2 1 1 1 2 2 1 3 5 4 3 2 1 8 2 3 1 4 5 10 15
14 12 12 13 13 10 10 10 10 10 10 10 10 12 13 12 8 8 2 1 2 2 6 4 8 12 13 8 2 3 3 2 3 2 1 1 1 1 2 2 1 1 5 4 7 7 2 2 5 5 3 12 15 17
14 13 12 12 13 12 11 10 11 10 9 9 10 12 14 13 9 10 2 2 1 3 6 3 5 6 9 17 12 3 4 4 2 2 2 1 1 3 1 4 2 1 2 2 4 1 3 5 2 2 9 13 16 17
14 13 12 12 12 12 13 12 11 11 10 9 9 12 13 12 9 11 3 2 1 1 4 6 3 6 3 7 11 17 9 3 1 1 2 1 1 3 1 1 2 2 2 1 5 4 8 1 10 12 16 16 17 19
14 14 12 12 12 11 11 13 13 12 11 9 9 12 13 10 9 3 2 3 2 1 4 7 12 7 7 10 13 13 11 3 0 3 2 3 2 1 1 1 3 4 4 4 5 2 4 7 13 16 16 20 19 19
14 14 14 14 14 12 10 11 13 12 12 10 10 14 13 9 8 2 1 2 3 3 2 5 4 5 6 7 8 8 6 3 3 2 3 2 2 2 1 2 1 2 2 3 3 3 5 11 13 13 17 19 18 18
14 15 15 16 15 14 11 10 14 14 13 10 9 14 13 11 3 2 2 2 7 3 2 4 4 4 3 3 2 2 5 3 3 2 2 2 2 3 1 2 3 4 3 3 5 4 6 11 12 16 15 17 19 18
14 15 14 15 14 12 14 13 11 13 13 9 11 13 9 13 4 1 3 8 7 2 2 3 4 4 3 1 0 1 2 2 2 1 1 2 1 2 3 3 4 2 3 3 5 5 6 8 12 14 14 15 18 17
13 13 14 14 12 14 10 11 11 10 12 9 18 17 4 2 2 2 6 11 2 1 2 3 2 3 4 2 2 1 2 3 2 2 3 3 2 4 5 4 4 3 1 4 6 5 7 8 13 14 16 17 17 18
14 14 14 13 14 12 9 10 9 11 21 22 4 2 2 3 4 8 2 1 3 2 3 4 2 4 1 3 3 2 3 3 3 4 2 3 3 2 5 5 5 3 3 4 4 5 6 11 12 14 15 15 15 17
15 14 14 13 14 10 9 9 8 20 8 2 3 1 1 8 1 1 2 3 3 3 3 4 6 4 1 2 3 1 2 2 2 2 1 1 2 1 5 6 5 5 5 5 3 4 6 8 11 13 15 15 15 17
15 13 12 11 11 8 8 7 20 4 3 4 5 4 2 2 2 3 3 3 4 4 4 3 4 4 2 1 3 3 2 2 2 3 2 2 0 3 5 4 3 4 4 5 4 6 8 10 10 12 12 13 14 16
14 13 12 11 9 8 7 12 19 19 11 3 3 2 2 3 5 5 6 4 3 4 3 2 2 2 3 4 3 2 2 1 3 1 2 3 3 3 3 2 3 4 4 4 6 6 9 10 11 11 12 12 13 13
13 13 12 10 8 8 6 10 22 12 4 2 4 4 4 5 5 5 2 1 3 3 2 4 3 4 3 3 3 2 1 2 2 3 3 2 4 4 3 2 2 4 5 5 6 6 7 9 10 11 10 11 12 13
11 11 10 9 8 8 8 11 16 2 3 3 4 5 6 4 2 1 3 4 2 3 3 3 2 3 2 3 1 3 2 3 3 2 3 3 5 5 3 2 3 4 4 5 5 5 7 8 8 10 11 10 11 12
8 6 6 9 11 12 8 16 3 2 2 2 5 3 3 3 3 3 5 6 1 4 3 3 2 2 1 1 1 3 4 4 4 3 3 5 5 4 3 2 2 2 3 4 5 5 5 7 8 8 10 11 11 12
8 3 9 15 14 11 19 5 2 3 4 4 3 3 2 2 3 2 2 3 3 2 3 3 3 2 1 1 2 3 5 4 3 2 3 5 6 5 4 2 2 3 5 5 5 6 5 6 6 8 11 12 11 12
3 4 11 9 8 10 2 2 3 3 5 4 3 2 3 3 3 3 1 2 2 2 1 1 1 3 2 3 3 4 2 2 3 4 4 4 5 4 3 3 3 3 3 4 4 4 4 6 8 7 9 10 9 11
4 5 8 21 9 5 3 2 2 3 4 2 2 3 3 3 3 2 3 3 2 2 4 3 1 3 3 4 3 2 3 3 4 3 3 4 5 3 2 1 3 4 5 3 4 4 3 5 4 5 6 7 7 8
8 4 20 12 6 3 3 2 2 2 4 4 3 3 3 2 2 2 3 3 2 2 2 2 2 3 4 2 3 3 4 6 5 4 3 2 2 3 1 4 3 4 4 4 4 6 4 4 4 4 5 6 7 9
7 10 12 4 2 2 2 3 3 2 2 3 2 3 3 1 2 3 2 3 2 2 4 3 2 3 2 1 2 4 7 7 5 5 5 4 2 4 4 4 4 3 3 3 4 4 5 3 3 4 4 6 6 7
4 8 3 2 1 3 2 3 2 2 2 2 2 3 2 2 3 3 4 3 3 4 3 3 2 2 2 3 3 3 6 7 6 5 7 9 4 3 3 3 4 3 3 3 2 3 3 2 3 4 5 5 6 6
9 4 2 2 2 1 1 3 3 5 3 2 2 2 2 2 1 4 2 3 3 3 3 3 3 2 4 3 5 5 5 7 5 4 4 4 4 4 4 4 3 4 4 2 1 3 3 3 5 4 3 4 4 5
5 3 3 4 3 3 2 3 1 2 1 2 2 2 2 2 3 1 1 2 2 1 2 5 6 5 3 4 3 3 3 4 5 4 4 7 5 3 3 4 3 3 3 3 2 3 3 3 4 4 5 6 7 7
4 4 4 4 3 4 3 4 4 3 3 3 4 2 2 2 2 2 1 3 3 1 2 3 4 4 5 3 2 2 2 4 6 6 2 4 5 4 4 3 3 2 2 4 3 3 3 3 4 5 6 7 9 9
4 4 6 7 4 4 5 3 5 5 3 4 3 2 2 2 2 2 1 3 3 1 3 5 5 4 2 2 4 3 3 3 5 5 2 4 3 6 5 5 3 2 2 3 3 4 4 3 4 6 6 8 9 9
5 5 3 3 3 2 3 2 2 2 4 3 3 2 2 2 2 2 1 3 3 3 2 1 2 3 5 4 4 4 4 5 5 4 5 5 4 3 4 5 4 2 2 4 4 4 4 4 5 6 6 6 7 8
2 3 4 4 2 1 1 2 3 4 2 2 3 2 2 2 2 3 3 5 6 4 5 5 6 5 7 6 6 6 7 8 10 9 8 8 6 4 4 4 4 9 5 5 5 4 4 4 4 5 6 6 7 7
2 3 2 3 2 2 2 2 2 1 2 2 3 2 3 3 4 4 4 7 4 4 6 6 6 7 9 9 8 7 5 5 10 10 8 3 2 3 3 3 4 5 5 6 8 7 7 6 5 5 5 5 6 6
3 3 2 3 0 2 3 2 2 3 4 4 4 3 3 3 4 5 6 6 6 7 7 6 5 7 8 9 7 8 7 6 3 3 5 4 3 2 3 4 4 4 4 5 5 4 5 5 4 5 5 5 6 6
3 2 3 3 3 3 3 5 7 5 4 5 5 4 3 3 2 8 10 8 6 6 8 8 8 8 7 7 5 5 5 7 8 10 8 6 4 4 4 4 4 4 4 5 4 4 4 5 5 5 6 7 9 8
2 2 4 4 2 2 2 3 3 3 4 3 3 3 3 3 4 5 7 7 7 8 9 8 9 7 7 7 9 9 9 5 6 6 8 5 5 5 5 4 4 5 6 6 5 5 6 5 5 6 6 8 9 9
3 3 4 3 3 2 1 3 3 3 3 3 3 3 3 3 4 2 2 6 6 6 8 8 8 8 10 10 9 7 8 7 8 9 9 9 8 7 5 4 4 6 7 6 5 5 6 6 5 5 5 6 6 8
Wind_Direction
286 289 291 294 294 291 288 292 289 287 293 289 277 205 201 204 187 147 238 194 164 238 264 244 253 249 256 210 215 345 312 188 275 248 196 220 294 331 56 180 178 176 151 212 164 218 282 15 7 96 259 296 298 306
286 290 290 290 293 300 293 289 291 295 282 275 270 215 200 200 196 164 230 188 133 225 262 231 228 242 239 239 166 223 291 328 283 318 265 270 279 37 144 269 329 207 189 195 177 221 254 332 227 273 277 298 299 300
282 281 285 290 291 293 294 292 290 291 286 275 260 220 198 199 213 172 162 144 163 275 277 270 267 267 224 231 229 234 256 231 41 314 290 224 246 140 149 249 306 173 123 175 20 29 309 294 112 335 309 299 300 295
272 277 280 288 291 295 292 294 295 292 285 277 258 213 193 196 210 172 160 158 155 290 285 285 312 295 313 183 192 205 242 10 283 245 282 179 221 178 209 308 193 229 69 202 268 316 326 117 342 318 308 303 307 309
269 270 273 279 282 286 293 291 289 294 285 273 255 196 186 193 193 165 145 181 159 207 289 294 304 264 252 202 198 211 233 239 73 277 230 247 249 120 344 1 244 173 178 159 238 200 228 279 310 313 316 317 316 316
273 274 269 270 272 267 273 288 287 291 282 271 238 188 182 177 136 136 282 176 170 162 286 295 307 292 315 181 185 189 190 171 234 259 231 257 272 129 156 252 233 121 136 153 264 254 267 280 289 312 315 312 311 314
270 272 273 273 277 276 268 265 284 284 286 259 214 178 176 163 146 160 193 135 147 140 249 282 282 273 298 201 197 165 167 195 205 259 246 218 282 165 239 249 217 202 201 241 244 285 297 329 315 314 315 317 315 311
267 269 269 271 276 276 276 257 264 274 282 260 174 160 155 147 101 214 181 148 139 201 228 272 275 307 341 229 69 175 156 169 191 243 354 231 141 130 250 215 156 190 256 247 258 283 313 303 304 322 323 322 325 325
263 270 269 273 275 285 264 262 255 266 281 171 121 111 90 98 169 233 179 178 166 270 246 241 269 283 354 282 160 121 139 209 153 203 231 128 193 219 223 157 159 190 87 309 307 335 322 317 328 328 331 330 332 329
253 263 267 273 277 271 257 249 252 262 133 118 90 118 191 204 185 134 68 150 194 200 230 243 261 259 70 4 256 204 177 205 192 217 155 189 243 45 65 85 96 73 29 1 349 343 316 340 335 330 331 328 327 326
250 255 266 270 281 252 245 242 253 139 113 85 121 136 74 144 136 160 211 217 176 231 215 239 223 231 207 190 278 255 233 174 226 169 209 251 249 122 110 93 78 55 39 3 313 305 312 335 331 326 326 330 331 330
247 251 254 261 271 268 238 229 158 121 122 135 112 101 119 179 197 240 206 186 206 240 202 218 210 190 239 180 239 241 241 143 205 145 236 259 134 114 116 106 77 61 25 354 338 329 348 340 329 322 324 331 333 330
247 244 246 252 255 246 241 185 170 125 114 61 72 140 136 163 223 218 212 182 218 197 232 182 202 165 214 219 236 247 208 146 121 186 239 207 135 116 107 75 43 21 12 7 354 345 348 333 327 335 334 337 334 334
245 241 239 238 242 247 225 184 154 141 108 126 144 180 211 196 226 208 190 211 244 211 88 291 151 214 172 172 228 181 92 134 221 226 230 237 164 147 114 77 45 3 13 6 353 341 332 333 334 336 341 341 339 342
252 239 226 233 228 239 206 167 159 69 113 159 183 219 217 239 273 221 211 266 273 323 305 320 284 165 175 238 261 114 152 253 207 252 214 184 151 138 119 81 50 29 11 360 347 344 338 334 341 340 345 347 349 350
241 235 216 201 209 219 224 137 74 77 45 197 221 241 214 213 222 219 248 257 246 247 138 226 266 219 154 109 145 209 145 227 245 209 170 135 138 128 120 98 72 45 23 359 354 348 344 346 345 330 345 358 355 359
207 237 196 208 198 191 139 94 104 162 201 217 230 231 239 292 267 225 217 213 194 219 179 186 208 156 81 358 274 178 200 215 187 143 135 150 150 150 136 110 59 35 16 10 359 7 4 339 341 6 6 355 357 2
225 203 227 179 160 90 49 76 131 181 229 222 238 221 197 220 213 248 84 337 212 268 269 141 153 138 178 221 249 235 153 90 81 130 146 140 131 125 136 112 60 36 43 38 21 15 17 15 18 10 358 353 2 7
173 212 150 142 116 101 124 176 191 214 220 184 265 250 253 237 212 203 170 218 248 275 300 345 208 170 219 227 216 173 152 154 140 154 140 127 126 147 198 70 65 78 78 58 38 26 18 29 18 356 348 357 11 7
215 243 159 140 80 101 111 154 237 224 212 214 221 224 212 221 184 192 187 172 188 149 256 244 217 229 213 245 183 157 134 133 127 111 112 113 152 153 160 142 118 114 94 55 44 38 31 20 6 8 5 3 9 9
140 141 127 102 92 111 158 155 191 242 217 217 236 180 248 230 211 205 190 158 139 204 231 215 218 253 279 318 137 116 132 145 161 154 159 139 170 127 110 95 102 94 90 66 66 28 40 33 346 360 10 13 3 2
91 85 94 68 121 191 170 196 200 194 191 275 175 191 230 218 207 193 145 183 213 222 197 163 232 157 144 152 153 142 134 108 104 94 85 117 124 123 129 144 119 108 96 93 82 68 43 12 17 23 23 8 359 360
99 63 87 136 174 150 211 140 211 182 213 222 148 202 227 251 179 130 205 203 245 216 183 151 118 92 120 94 100 86 118 130 129 133 124 105 105 108 113 122 133 127 115 59 85 85 60 18 30 36 15 15 10 16
105 95 147 162 164 173 198 197 212 207 206 236 199 222 241 174 161 245 209 242 252 83 141 154 131 105 60 62 80 102 110 112 104 87 114 126 117 103 123 126 117 107 116 131 87 69 59 60 46 32 21 19 18 19
118 158 151 160 194 192 205 186 188 230 201 217 199 220 214 146 144 188 226 312 337 9 109 117 105 107 126 110 67 77 64 142 142 130 114 117 114 96 81 76 77 85 130 105 86 81 56 52 46 35 25 21 16 11
129 179 181 187 176 191 194 178 193 200 200 180 223 177 144 144 139 111 47 329 311 219 186 166 143 119 80 106 139 160 187 124 105 110 150 137 140 142 141 133 116 26 27 129 123 101 81 55 58 50 36 27 19 12
162 186 205 232 199 193 205 167 153 150 182 214 161 138 173 132 102 66 5 18 315 335 258 142 111 136 145 133 85 68 81 77 82 106 111 94 91 97 128 141 152 185 135 95 85 89 85 56 40 34 29 25 19 12
225 165 174 183 184 80 197 177 166 182 183 200 135 112 87 46 66 333 344 347 331 344 62 58 58 81 90 88 94 95 86 98 99 99 89 67 49 42 65 75 83 96 88 76 82 73 67 60 46 32 24 19 8 6
216 137 114 139 81 175 181 254 180 78 358 59 90 92 85 60 354 330 317 319 315 59 72 80 73 87 83 76 64 57 49 68 95 87 88 117 110 30 32 74 81 80 80 81 64 63 63 60 54 49 39 24 7 358
162 136 121 115 102 80 37 355 52 36 42 73 95 94 76 75 9 358 2 2 51 70 73 74 80 92 102 101 91 61 37 24 10 145 162 170 174 119 109 105 95 90 87 86 83 67 45 47 38 31 29 21 14 4
136 107 91 69 77 48 72 76 62 53 58 58 53 79 104 133 86 29 20 3 27 57 65 61 53 34 58 64 78 93 69 21 42 62 73 76 68 64 72 85 93 95 91 89 82 74 67 54 44 33 25 20 12 7
94 116 119 109 104 85 68 43 48 52 38 44 36 42 70 56 59 34 5 11 35 54 48 64 69 61 62 73 72 73 82 79 61 62 66 68 62 62 76 77 80 84 80 77 70 62 55 54 45 34 20 12 7 1
74 73 83 99 109 105 77 100 67 83 46 58 58 51 51 67 76 63 44 22 50 77 83 84 85 84 81 82 86 83 76 78 72 65 66 65 66 68 69 65 77 86 86 80 70 62 58 59 50 37 22 9 354 351